오래된 문서 목록

  1. 101부터 #150까지의 범위에서 50개의 결과가 아래에 보입니다.

( | ) (20 | 50 | 100 | 250 | 500) 보기

  1. Water Level Sensor(DM446) JP‏‎ (2025년 3월 20일 (목) 19:56)
  2. Water Level Sensor(DM446) CN‏‎ (2025년 3월 20일 (목) 19:57)
  3. Temperature and Humidity Sensor(DHT11)‏‎ (2025년 3월 20일 (목) 19:57)
  4. Temperature and Humidity Sensor(DHT11) CN‏‎ (2025년 3월 20일 (목) 19:58)
  5. Temperature and Humidity Sensor(DHT11) JP‏‎ (2025년 3월 20일 (목) 19:58)
  6. LED 5mm EN‏‎ (2025년 3월 20일 (목) 20:04)
  7. LED(5mm)‏‎ (2025년 3월 20일 (목) 20:14)
  8. LED 5mm JP‏‎ (2025년 3월 20일 (목) 20:21)
  9. LED 5mm CN‏‎ (2025년 3월 20일 (목) 20:29)
  10. 8x8 dot matrix(MAX7219) JP‏‎ (2025년 3월 20일 (목) 20:37)
  11. 8x8 dot matrix(MAX7219) CN‏‎ (2025년 3월 20일 (목) 20:39)
  12. 8x8 dot matrix(MAX7219)‏‎ (2025년 3월 20일 (목) 20:40)
  13. RTC Module(DS1302)‏‎ (2025년 3월 20일 (목) 20:44)
  14. RTC Module(DS1302) JP‏‎ (2025년 3월 20일 (목) 20:48)
  15. RTC Module(DS1302) CN‏‎ (2025년 3월 20일 (목) 20:50)
  16. 네오픽셀(WS2812)‏‎ (2025년 3월 20일 (목) 20:54)
  17. HC-06 블루투스 모듈‏‎ (2025년 3월 20일 (목) 20:54)
  18. 기울기 센서(Tilt sensor, SW-520D)‏‎ (2025년 3월 20일 (목) 20:55)
  19. 수위 센서(DM446)‏‎ (2025년 3월 20일 (목) 20:56)
  20. 온습도 센서(DHT11)‏‎ (2025년 3월 20일 (목) 20:57)
  21. 8x8 도트매트릭스(8x8 dot matrix, MAX7219)‏‎ (2025년 3월 20일 (목) 20:57)
  22. RTC 모듈(DS1302)‏‎ (2025년 3월 20일 (목) 20:58)
  23. 적외선 인체감지 모션센서(HC-SR501)‏‎ (2025년 3월 20일 (목) 20:58)
  24. Infrared Human Body Motion Sensor(HC-SR501)‏‎ (2025년 3월 20일 (목) 21:00)
  25. Infrared Human Body Motion Sensor(HC-SR501) JP‏‎ (2025년 3월 21일 (금) 15:20)
  26. Infrared Human Body Motion Sensor(HC-SR501) CN‏‎ (2025년 3월 21일 (금) 15:21)
  27. 소리 감지 모듈(KY-037)‏‎ (2025년 3월 21일 (금) 16:01)
  28. Sound Detection Module(KY-037) JP‏‎ (2025년 3월 21일 (금) 16:25)
  29. Sound Detection Module(KY-037) CN‏‎ (2025년 3월 21일 (금) 16:26)
  30. Sound Detection Module(KY-037)‏‎ (2025년 3월 21일 (금) 16:27)
  31. 3축 자이로 센서(MPU-6050, GY-521)‏‎ (2025년 3월 21일 (금) 16:36)
  32. 3-Axis Gyro Sensor(MPU-6050,GY-521) CN‏‎ (2025년 3월 21일 (금) 16:41)
  33. 3-Axis Gyro Sensor(MPU-6050,GY-521) JP‏‎ (2025년 3월 21일 (금) 16:41)
  34. 3-Axis Gyro Sensor(MPU-6050,GY-521)‏‎ (2025년 3월 21일 (금) 16:42)
  35. RFID, NFC 모듈(PN532)‏‎ (2025년 3월 21일 (금) 16:46)
  36. RFID,NFC Module(PN532)‏‎ (2025년 3월 21일 (금) 16:48)
  37. RFID,NFC Module(PN532) JP‏‎ (2025년 3월 21일 (금) 16:50)
  38. RFID,NFC Module(PN532) CN‏‎ (2025년 3월 21일 (금) 16:51)
  39. RFID, NFC 모듈(RC522)‏‎ (2025년 3월 21일 (금) 16:55)
  40. RFID,NFC Module(RC522)‏‎ (2025년 3월 21일 (금) 16:56)
  41. RFID,NFC Module(RC522) JP‏‎ (2025년 3월 21일 (금) 17:00)
  42. RFID,NFC Module(RC522) CN‏‎ (2025년 3월 21일 (금) 17:02)
  43. 적외선 수신기, 리모컨‏‎ (2025년 3월 21일 (금) 17:03)
  44. Infrared Receiver, Remote Control‏‎ (2025년 3월 21일 (금) 17:06)
  45. Infrared Receiver, Remote Control JP‏‎ (2025년 3월 21일 (금) 17:14)
  46. Infrared Receiver, Remote Control CN‏‎ (2025년 3월 21일 (금) 17:18)
  47. 3색 LED 모듈(KY-016)‏‎ (2025년 3월 21일 (금) 17:26)
  48. 3-Color LED Module(KY-016) JP‏‎ (2025년 3월 21일 (금) 17:29)
  49. 3-Color LED Module(KY-016) CN‏‎ (2025년 3월 21일 (금) 17:32)
  50. 3-Color LED Module(KY-016)‏‎ (2025년 3월 21일 (금) 18:15)

( | ) (20 | 50 | 100 | 250 | 500) 보기